Simultaneous Nadir Overpasses (SNOs) Predictions

Prediction of SNOs near US between AQUA and NPP Satellite Orbit:

Table of predicted SNOs near US for the next 10.0 days since TLE Epoch: 9/5/2015
Index Date (AQUA) Time (AQUA) AQUA Lat,Lon Date (NPP) Time (NPP) NPP Lat,Lon Distance(km) Time Diff (sec)
1 09/08/2015 06:56:10 20.05, -77.15 09/08/2015 06:47:53 19.94, -76.67 51.55 497
2 09/08/2015 08:32:41 28.55, -99.81 09/08/2015 08:26:55 28.54, -99.85 4.05 346
3 09/08/2015 10:08:52 38.27,-121.84 09/08/2015 10:05:36 38.39,-122.34 46.21 196
4 09/11/2015 07:18:45 49.92, -75.99 09/11/2015 07:23:31 50.33, -78.18 162.30 286
5 09/11/2015 08:57:38 49.93,-100.71 09/11/2015 09:04:58 50.49,-103.48 206.73 440
6 09/13/2015 18:16:55 49.99, -80.18 09/13/2015 18:13:45 49.73, -81.68 111.37 190
7 09/13/2015 19:55:48
